Wind_Speed
64 58 52 51 45 42 41 40 40 40 38 37 33 43 42 47 42 33 36 34 36 37 35 32 33 32 30 29 29 31 30 30 28 27 28 29 30 32 30 28 29 27 27 28 28 29 28 28 26
68 67 62 57 48 48 47 48 45 47 43 38 39 45 43 39 35 40 39 44 43 40 39 38 38 36 35 33 33 34 34 34 32 31 31 30 31 31 32 28 29 28 26 25 27 27 27 26 25
73 71 70 62 57 52 53 55 56 54 46 40 46 46 45 40 40 42 40 42 42 42 42 41 41 41 41 39 36 35 38 38 36 34 31 32 34 32 32 30 29 29 26 25 27 28 27 28 28
78 75 78 70 62 59 57 60 58 57 50 48 52 49 49 44 44 47 42 43 46 44 43 42 41 42 42 43 43 41 40 39 38 39 35 33 35 35 34 32 30 28 27 26 25 27 28 29 29
79 75 77 77 70 66 65 67 67 62 56 53 53 52 52 47 47 49 48 48 48 47 44 44 43 44 44 44 45 46 44 42 41 40 40 38 38 37 35 34 33 30 29 26 25 26 27 29 29
89 87 82 81 75 72 73 71 71 66 62 62 57 53 58 49 52 54 53 54 52 50 47 46 45 46 47 46 47 47 47 47 44 44 43 42 41 39 37 36 35 34 33 31 28 28 29 30 30
95 92 87 83 79 78 75 76 74 74 69 69 62 58 55 54 54 57 59 60 61 56 52 48 47 47 47 49 50 49 48 47 48 47 48 47 44 42 38 37 38 38 34 32 31 31 32 31 31
101 98 95 92 91 84 82 82 80 81 74 72 72 62 63 54 52 53 66 76 64 63 59 55 52 51 52 52 53 53 51 50 49 47 47 45 46 45 42 41 42 42 38 34 36 36 34 35 36
106 101 95 87 87 88 88 87 86 86 78 78 73 71 68 60 55 57 2 45 58 66 64 56 55 55 57 58 59 59 58 55 54 52 51 49 46 47 47 44 43 42 42 40 41 42 41 40 40
108 105 99 98 98 93 92 89 92 90 80 86 82 76 75 67 63 67 65 50 20 36 58 60 60 60 61 63 64 64 62 60 59 58 57 54 53 50 48 49 49 48 47 46 45 44 43 44 45
111 107 106 103 103 103 102 94 91 87 87 87 88 86 83 78 71 70 72 82 83 70 65 59 64 66 68 69 71 70 67 65 63 62 61 59 58 57 56 54 53 53 53 53 52 51 50 50 49
109 108 112 112 109 108 104 102 102 100 94 94 92 90 88 82 80 81 84 81 77 69 64 62 70 77 77 74 78 80 77 71 69 66 65 64 63 62 63 63 61 59 59 58 57 56 56 56 56
84 92 104 110 112 110 106 103 102 104 103 100 101 95 95 88 83 88 88 82 76 63 58 53 52 78 72 74 79 88 84 78 72 70 68 67 66 67 69 69 67 66 65 65 64 63 62 62 62
78 80 84 92 98 104 103 103 103 102 106 103 105 101 98 93 90 89 89 86 76 62 55 57 23 71 63 67 72 69 79 87 78 73 71 69 71 73 72 74 74 74 71 70 70 69 68 67 67
76 78 79 78 83 89 96 100 100 101 107 107 105 108 106 100 95 94 93 89 83 66 62 52 37 44 28 44 54 48 70 83 78 73 69 69 73 78 81 85 87 84 82 78 74 75 74 70 69
76 74 74 78 81 82 87 83 91 95 98 99 100 99 106 102 97 92 96 95 86 75 76 75 68 74 49 22 43 53 59 79 77 65 64 68 68 79 82 89 89 90 87 85 84 78 75 73 68
81 78 75 77 79 82 81 79 83 88 91 93 97 99 101 104 96 94 95 92 94 89 85 89 78 81 69 47 44 70 41 43 60 62 55 52 53 58 55 70 80 84 84 87 80 74 77 78 77
84 83 82 79 80 78 76 77 81 83 84 86 89 91 94 95 101 98 97 95 90 99 96 95 91 92 92 70 43 40 40 46 57 49 44 48 40 57 30 40 25 52 35 70 69 68 71 83 84
83 87 84 83 85 81 75 75 76 79 82 83 83 83 83 84 90 94 96 98 94 98 99 107 104 102 106 106 97 101 104 73 59 61 74 38 47 70 48 52 33 46 51 78 71 79 77 77 83
67 76 84 86 85 83 81 79 80 80 78 79 80 80 80 79 80 84 87 92 90 93 96 101 106 114 113 110 108 113 119 112 110 109 106 99 86 76 87 73 83 94 97 104 109 107 104 106 106
62 62 66 81 86 83 84 81 83 84 80 78 77 75 76 77 76 78 78 81 81 81 84 95 106 109 111 114 116 115 117 120 113 110 110 114 112 118 126 126 121 121 121 122 122 119 115 116 113
60 61 60 65 79 83 84 80 82 84 84 83 81 77 75 71 69 70 71 74 72 75 79 79 86 92 101 111 118 119 121 122 118 116 112 117 120 121 123 124 122 123 125 127 122 118 113 111 111
56 56 60 63 67 77 83 80 80 84 83 79 81 79 77 74 73 72 72 69 71 74 75 76 77 82 86 90 94 99 109 115 115 114 113 115 110 116 119 120 118 117 116 113 111 109 108 107 108
61 55 55 59 61 62 70 79 81 83 81 82 81 76 71 70 69 72 75 77 78 77 77 80 81 83 84 88 91 96 102 103 104 106 110 110 111 109 109 109 110 110 109 107 104 103 102 101 101
57 61 55 58 53 47 60 74 73 75 80 81 75 75 75 72 70 69 67 68 71 71 73 75 78 80 83 87 89 92 96 99 101 103 106 111 109 108 107 108 106 102 103 101 100 99 98 98 96
57 59 59 53 54 53 55 57 72 73 73 75 71 72 72 72 71 72 71 70 71 75 76 76 78 80 85 89 93 98 101 102 105 109 107 111 111 108 109 106 103 102 103 100 99 99 99 97 96
58 57 61 58 58 54 48 51 59 64 71 74 73 68 66 70 64 65 68 67 67 73 74 75 79 84 90 94 96 99 104 108 112 116 114 112 116 112 112 113 106 104 103 104 103 100 98 95 95
54 54 54 52 53 48 47 50 45 59 60 61 59 62 62 59 59 59 62 61 65 66 68 72 80 81 79 81 80 85 93 100 107 112 113 115 117 115 105 111 110 110 109 108 106 102 98 95 94
47 48 46 41 43 41 43 47 42 49 58 60 56 53 54 58 56 55 53 56 59 61 64 69 70 69 64 58 58 65 73 77 79 86 89 89 92 96 100 101 106 107 103 103 99 99 98 97 98
51 47 45 41 40 41 42 44 41 49 55 48 50 55 55 54 55 52 53 55 56 59 62 61 59 50 43 37 35 36 41 49 54 56 62 65 68 72 74 76 79 81 81 85 87 89 93 94 100
Wind_Direction
250 249 245 243 243 236 241 239 244 243 245 242 241 242 241 241 241 242 248 254 256 254 253 250 248 252 252 253 255 260 263 268 273 279 281 285 286 281 281 290 296 300 294 275 279 288 297 304 305
247 250 250 248 243 244 245 243 243 243 240 249 252 251 244 248 246 246 250 252 255 260 262 263 266 265 266 257 255 260 263 267 270 275 283 287 289 286 283 292 299 309 302 275 272 284 293 296 297
249 251 250 249 251 249 247 247 244 243 241 246 253 253 251 244 247 250 251 255 255 255 257 261 263 265 268 270 269 265 266 268 273 278 284 288 287 284 285 291 297 303 301 287 278 282 289 293 288
246 249 253 253 251 249 246 243 242 244 245 245 247 250 253 252 256 254 256 256 258 259 260 261 262 261 263 265 270 271 269 268 271 274 278 281 283 284 283 288 289 294 297 290 284 281 282 283 283
242 245 250 254 251 249 247 249 251 252 246 244 247 249 250 251 255 258 257 257 258 259 261 263 266 269 269 270 270 272 273 271 270 272 274 279 281 283 281 282 284 286 288 290 283 279 280 281 279
242 245 248 252 249 249 249 248 251 253 250 240 244 246 246 247 252 258 259 257 257 258 259 264 270 275 277 277 279 278 277 276 275 275 274 276 276 280 280 278 277 279 283 283 282 282 281 280 279
242 247 249 249 247 247 249 250 249 252 247 251 246 240 244 242 253 255 258 259 261 261 263 262 264 270 272 274 278 280 282 281 279 278 279 277 275 276 279 275 275 276 278 278 279 284 285 283 281
243 245 246 249 250 249 248 247 248 251 250 249 251 246 245 244 245 259 263 259 253 256 258 261 262 267 270 273 274 276 276 276 278 279 278 278 277 274 274 274 274 275 275 274 276 280 282 285 288
243 244 245 245 247 246 244 244 247 252 253 253 249 251 248 246 244 242 95 255 254 251 253 258 264 264 267 269 271 271 273 272 273 274 275 275 275 274 274 272 273 275 276 275 276 279 283 284 283
247 247 245 247 245 244 244 244 245 251 253 254 255 253 249 245 238 242 237 254 260 249 252 258 261 263 264 265 265 265 265 266 266 269 271 273 274 274 274 275 272 271 271 274 275 278 282 284 285
243 245 246 247 248 247 246 247 249 249 246 247 252 252 252 252 244 241 243 248 253 261 267 269 267 269 270 269 270 269 265 264 263 265 267 269 269 270 272 273 273 274 275 276 275 275 276 277 279
241 241 243 245 247 247 248 250 249 247 247 246 248 252 254 254 252 248 246 246 251 256 268 276 281 281 276 274 273 269 268 264 264 264 268 268 268 269 271 272 273 271 271 271 274 275 276 278 281
235 238 240 242 244 245 246 246 246 249 248 247 248 249 251 253 251 252 253 252 251 256 266 284 273 284 281 281 290 270 265 265 264 265 268 271 274 272 271 270 270 271 271 271 272 274 276 278 279
235 234 235 237 239 241 241 241 244 245 247 248 250 249 249 249 250 250 252 253 254 250 247 236 263 280 270 282 284 284 281 274 263 265 268 272 275 277 276 277 275 272 271 271 273 273 273 276 279
236 235 235 237 237 238 238 239 242 241 244 246 247 248 248 247 246 248 250 252 251 246 241 221 181 240 275 281 280 281 275 273 260 262 268 270 273 274 276 276 273 271 270 269 272 275 276 277 281
237 237 237 237 237 238 238 237 240 241 242 241 243 244 249 248 242 243 249 251 250 245 240 239 226 219 256 277 274 279 275 261 256 262 266 274 281 281 284 279 273 272 273 272 273 277 279 280 279
238 236 236 237 238 237 239 238 240 241 242 243 243 243 244 247 244 240 241 245 249 245 241 239 228 229 240 264 274 286 259 255 250 258 264 282 271 287 277 276 271 269 274 272 274 279 279 277 276
236 238 236 236 239 238 238 238 240 242 243 243 243 243 244 244 247 244 243 242 241 246 240 239 237 230 235 237 247 213 258 247 233 245 259 267 268 255 216 245 259 278 290 276 273 274 272 272 271
236 235 236 237 238 238 237 238 240 240 241 243 243 243 244 245 246 248 246 246 243 241 245 239 237 239 239 241 237 239 246 249 247 245 255 254 207 234 234 218 220 233 243 252 259 270 272 274 275
240 238 237 238 238 240 239 240 239 242 241 243 244 244 245 244 244 245 249 250 246 242 243 243 243 240 243 243 242 246 253 254 256 257 254 256 242 246 243 244 255 261 261 266 272 273 272 273 274
247 241 241 240 238 239 240 239 242 244 243 243 243 244 243 244 244 246 246 251 253 250 244 245 244 243 245 247 249 249 250 252 257 260 256 255 255 250 253 260 265 265 268 268 268 271 271 273 274
246 243 239 240 239 237 240 241 243 244 245 246 246 244 245 245 247 248 249 247 250 253 250 247 248 248 248 248 247 249 251 253 253 256 257 259 257 256 258 262 264 264 265 266 267 267 267 269 270
238 247 242 240 240 237 237 239 242 246 245 246 248 248 247 247 247 248 250 252 251 252 254 252 251 251 250 251 252 252 254 255 256 257 256 257 255 258 261 260 260 262 264 264 264 268 269 268 267
234 242 248 246 241 241 240 241 242 245 246 247 248 249 250 250 250 251 250 251 252 254 255 257 257 258 258 258 256 254 254 255 255 257 257 259 257 254 255 257 259 261 263 264 265 268 269 269 270
238 237 242 250 252 246 243 240 242 245 248 246 249 252 253 253 252 252 252 252 254 254 256 256 258 258 258 258 258 258 258 258 259 258 258 259 258 257 257 257 257 260 263 265 267 269 270 270 270
236 236 241 242 246 248 244 241 241 241 247 249 248 249 252 253 253 255 253 253 256 260 261 264 266 267 267 267 267 266 263 262 260 260 260 262 261 262 262 261 263 264 265 267 271 272 272 274 272
235 236 239 241 247 254 253 244 246 243 246 249 246 251 252 254 254 254 259 260 258 261 264 267 269 271 271 269 266 264 261 261 260 260 262 262 264 265 265 267 268 267 268 269 270 273 275 274 274
234 239 241 245 250 250 248 245 240 241 246 247 247 246 249 248 254 256 257 259 261 263 267 271 274 277 276 274 269 262 258 254 255 255 255 256 259 263 264 266 270 270 270 270 271 270 271 274 278
230 236 244 239 244 247 243 247 239 238 247 243 248 245 251 251 251 251 258 257 261 265 268 275 279 282 283 280 269 262 260 257 256 255 256 261 262 263 263 264 267 268 268 267 269 269 271 274 276
224 228 233 233 237 240 243 244 242 238 242 251 251 248 246 246 248 252 252 255 260 266 272 276 279 285 284 286 285 279 268 262 260 260 258 258 260 261 262 265 267 268 268 268 269 270 273 272 275
Height
10923 10926 10932 10938 10946 10949 10950 10952 10951 10953 10957 10960 10967 10963 10967 10964 10972 10979 10977 10980 10979 10982 10984 10987 10989 10991 10991 10992 10993 10994 10997 10998 10999 10998 10998 10998 10997 10997 10996 10996 10996 10994 10993 10993 10994 10994 10993 10993 10992
10912 10915 10923 10929 10941 10945 10944 10943 10946 10946 10951 10957 10957 10955 10959 10964 10973 10973 10976 10976 10976 10979 10980 10982 10984 10986 10988 10989 10990 10991 10992 10994 10994 10995 10995 10994 10994 10993 10993 10993 10992 10991 10989 10989 10989 10989 10989 10989 10989
10901 10905 10912 10922 10932 10939 10937 10937 10935 10938 10948 10954 10951 10950 10953 10962 10968 10967 10970 10974 10974 10976 10978 10979 10980 10982 10983 10984 10987 10989 10990 10991 10991 10991 10991 10991 10990 10990 10989 10990 10989 10988 10987 10986 10986 10985 10986 10985 10984
10890 10895 10903 10914 10924 10926 10925 10925 10928 10936 10943 10945 10943 10948 10949 10958 10959 10960 10964 10965 10964 10969 10972 10975 10976 10978 10979 10981 10983 10985 10986 10986 10987 10987 10987 10987 10987 10987 10987 10986 10986 10985 10984 10983 10982 10981 10981 10981 10980
10878 10885 10895 10904 10913 10914 10913 10914 10918 10926 10936 10937 10939 10944 10946 10952 10951 10949 10953 10955 10956 10959 10965 10968 10971 10975 10977 10978 10980 10981 10982 10983 10983 10983 10983 10983 10983 10983 10983 10983 10982 10982 10981 10980 10978 10977 10976 10976 10976
10868 10872 10886 10894 10899 10900 10900 10902 10905 10919 10924 10925 10933 10939 10937 10947 10944 10945 10949 10950 10950 10951 10956 10963 10968 10973 10976 10978 10978 10979 10980 10980 10980 10980 10979 10979 10979 10979 10978 10978 10977 10977 10976 10976 10975 10973 10972 10972 10971
10856 10858 10872 10877 10883 10886 10892 10889 10894 10902 10910 10915 10926 10930 10934 10942 10944 10942 10941 10943 10948 10954 10955 10957 10959 10965 10968 10971 10973 10974 10976 10976 10976 10976 10976 10977 10976 10974 10974 10973 10972 10971 10971 10971 10970 10968 10967 10967 10968
10837 10842 10857 10867 10872 10877 10877 10876 10881 10885 10898 10901 10912 10924 10923 10938 10943 10935 10930 10920 10931 10946 10948 10951 10953 10954 10959 10962 10964 10964 10965 10968 10970 10970 10970 10970 10971 10970 10968 10967 10966 10966 10966 10965 10965 10963 10962 10962 10962
10813 10828 10847 10852 10852 10856 10857 10861 10864 10872 10888 10887 10902 10908 10910 10928 10932 10928 10918 10900 10924 10934 10940 10944 10945 10946 10949 10951 10953 10955 10956 10958 10960 10962 10963 10963 10963 10963 10963 10961 10961 10960 10960 10959 10958 10958 10957 10956 10955
10798 10813 10828 10824 10830 10837 10837 10844 10848 10862 10878 10873 10888 10896 10893 10915 10921 10916 10922 10913 10918 10927 10935 10936 10935 10935 10936 10938 10939 10941 10944 10947 10949 10951 10953 10955 10956 10956 10956 10956 10954 10953 10953 10952 10951 10950 10950 10949 10948
10782 10801 10799 10806 10810 10817 10825 10834 10840 10855 10859 10862 10872 10876 10880 10891 10912 10918 10915 10908 10912 10923 10927 10932 10925 10924 10927 10930 10933 10934 10934 10934 10937 10939 10940 10942 10946 10947 10947 10947 10947 10947 10946 10945 10944 10943 10942 10941 10941
10760 10772 10780 10786 10789 10801 10816 10816 10824 10833 10842 10844 10854 10865 10866 10878 10892 10896 10899 10904 10912 10927 10926 10927 10917 10917 10921 10923 10922 10920 10921 10922 10924 10927 10929 10932 10934 10937 10938 10937 10936 10936 10935 10934 10935 10934 10933 10933 10934
10744 10749 10758 10766 10773 10786 10794 10795 10802 10815 10821 10826 10837 10851 10853 10864 10876 10870 10875 10887 10897 10921 10927 10927 10907 10905 10904 10902 10901 10904 10909 10912 10913 10916 10919 10922 10925 10924 10923 10922 10922 10922 10922 10922 10923 10923 10925 10925 10925
10725 10730 10738 10745 10755 10764 10776 10775 10782 10796 10803 10813 10818 10831 10838 10848 10859 10853 10860 10869 10888 10914 10927 10939 10936 10881 10872 10884 10889 10892 10895 10900 10903 10905 10909 10912 10911 10909 10906 10906 10907 10908 10907 10909 10909 10911 10913 10916 10913
10709 10716 10721 10735 10736 10744 10751 10758 10772 10774 10782 10797 10801 10806 10813 10831 10846 10840 10842 10854 10874 10906 10913 10918 10925 10867 10871 10880 10879 10873 10872 10883 10888 10895 10900 10896 10893 10889 10890 10890 10890 10890 10890 10890 10893 10894 10899 10902 10901
10696 10702 10712 10716 10721 10728 10729 10752 10750 10755 10762 10775 10781 10789 10793 10810 10827 10830 10829 10834 10863 10886 10888 10889 10903 10882 10871 10867 10867 10861 10863 10868 10872 10882 10887 10881 10876 10875 10879 10869 10871 10874 10874 10877 10875 10879 10888 10891 10890
10682 10691 10699 10698 10705 10708 10719 10733 10732 10734 10742 10754 10763 10770 10779 10785 10806 10814 10811 10826 10844 10863 10867 10861 10882 10873 10864 10873 10869 10848 10840 10849 10866 10873 10877 10865 10864 10868 10869 10861 10861 10860 10862 10865 10862 10867 10869 10875 10876
10663 10669 10677 10684 10687 10695 10708 10717 10716 10720 10727 10735 10744 10752 10760 10772 10782 10793 10795 10812 10824 10833 10849 10849 10862 10865 10861 10871 10874 10838 10831 10837 10848 10859 10867 10869 10881 10870 10856 10854 10856 10856 10864 10845 10852 10849 10848 10851 10858
10641 10652 10660 10669 10671 10681 10694 10699 10701 10705 10711 10718 10726 10736 10744 10757 10764 10769 10777 10785 10802 10808 10816 10832 10842 10843 10847 10848 10847 10836 10831 10836 10840 10839 10851 10883 10835 10829 10839 10833 10835 10828 10838 10834 10833 10833 10831 10830 10834
10629 10636 10647 10651 10656 10668 10678 10684 10686 10689 10698 10702 10710 10720 10729 10739 10748 10754 10759 10760 10776 10786 10796 10799 10806 10814 10817 10821 10824 10822 10802 10821 10816 10822 10829 10839 10840 10824 10821 10817 10821 10817 10815 10817 10818 10818 10817 10817 10814
10615 10623 10628 10632 10640 10651 10658 10670 10671 10673 10682 10690 10696 10706 10715 10722 10733 10741 10748 10747 10752 10764 10777 10775 10776 10783 10790 10791 10789 10795 10792 10793 10802 10796 10800 10810 10806 10807 10799 10796 10799 10799 10794 10794 10799 10801 10800 10796 10796
10602 10605 10610 10615 10621 10635 10640 10651 10656 10660 10669 10676 10682 10692 10699 10709 10715 10723 10730 10739 10744 10743 10748 10759 10757 10760 10761 10761 10765 10769 10763 10770 10784 10782 10777 10775 10783 10782 10780 10777 10776 10777 10776 10775 10781 10781 10781 10780 10775
10590 10590 10596 10600 10608 10616 10628 10638 10641 10645 10653 10663 10665 10676 10686 10695 10702 10708 10715 10725 10728 10727 10728 10732 10740 10739 10741 10741 10744 10751 10742 10744 10749 10752 10754 10756 10761 10761 10760 10761 10762 10761 10759 10758 10758 10758 10759 10757 10755
10573 10578 10584 10588 10596 10609 10618 10621 10628 10625 10639 10643 10653 10663 10672 10679 10688 10691 10699 10706 10711 10714 10716 10712 10719 10719 10725 10723 10726 10726 10721 10723 10728 10728 10729 10735 10735 10739 10742 10745 10740 10741 10740 10739 10738 10739 10738 10735 10736
10561 10566 10575 10580 10590 10602 10599 10603 10612 10622 10621 10629 10645 10651 10656 10668 10673 10673 10684 10689 10690 10696 10699 10700 10700 10702 10705 10703 10704 10704 10700 10704 10702 10702 10705 10699 10709 10714 10718 10717 10721 10720 10719 10719 10717 10717 10716 10715 10715
10548 10555 10564 10571 10577 10582 10583 10596 10594 10607 10609 10618 10634 10635 10640 10648 10657 10657 10666 10674 10675 10674 10679 10681 10683 10685 10684 10682 10681 10676 10676 10678 10677 10673 10679 10677 10680 10685 10689 10692 10695 10697 10697 10697 10696 10695 10693 10695 10695
10536 10546 10553 10558 10561 10575 10580 10581 10583 10594 10600 10603 10616 10620 10631 10629 10640 10646 10647 10655 10662 10656 10659 10662 10662 10661 10656 10654 10654 10650 10646 10645 10644 10643 10649 10654 10651 10655 10660 10660 10666 10669 10672 10671 10671 10673 10673 10673 10672
10526 10530 10540 10550 10555 10563 10568 10567 10578 10579 10588 10591 10601 10608 10615 10622 10628 10632 10632 10638 10639 10643 10645 10642 10641 10637 10630 10622 10617 10613 10611 10613 10613 10616 10621 10626 10629 10633 10636 10636 10640 10641 10643 10645 10647 10650 10651 10650 10647
10516 10521 10532 10539 10546 10552 10557 10558 10567 10571 10569 10584 10593 10600 10604 10605 10616 10616 10619 10620 10624 10627 10628 10626 10621 10613 10607 10598 10592 10587 10585 10586 10589 10592 10596 10604 10610 10612 10616 10616 10617 10619 10621 10622 10625 10625 10626 10627 10627
10505 10512 10522 10532 10537 10541 10546 10552 10560 10561 10564 10577 10579 10584 10590 10593 10598 10605 10605 10607 10610 10610 10611 10611 10607 10603 10594 10587 10580 10575 10572 10572 10574 10577 10581 10586 10589 10591 10595 10595 10595 10595 10597 10599 10602 10602 10604 10603 10602